Showing default

QIANFAN-69, 62799

Orbit data source: Space-Track

QIANFAN-69, 62799 is a Chinese payload satellite in LEO that was launched on Thu, 23 Jan 2025 UTC via a CHANG ZHENG 6A launch vehicle from the Taiyaun Space Center, China (TSC). Payload-class satellites include a variety of spacecraft equipped with specific instruments for various scientific and technological missions. These include communications satellites like Starlink; space stations such as the ISS; scientific satellites like the Hubble; Earth observation satellites from companies like Planet Labs, Umbra, and HawkEye 360; GPS; miniature CubeSats for education and research; and military/defense satellites.

Loading next visibility...
Identifier
62799, 2025-016Q
Orbit
LEO
Last TLE update
15 hours ago
Origin
Manufacturer
SECM
Mission
Operational Commercial Communications
Bus & Motor
QIANFAN, Unknown motor
Mass
267 kg wet, ~267 kg dry
Launch date (UTC)
2025-01-23 (5 months ago)
Launch vehicle
CHANG ZHENG 6A
Launch site
Taiyaun Space Center, China (TSC)
Object type
Payload
Rocket body
Debris
Shape & HBR
Box + 1 Pan, 10 m
Radar Cross Section
13.200 m², Large (>1 m²)

Expand to show TLE details & history

TLE from 15 hours ago
0 QIANFAN-69
1 62799U 25016Q   25181.82886568  .00000106  00000-0  14592-3 0  9996
2 62799  88.9838 119.9940 0018121  98.7613 261.5591 13.50954452 25014
Epoch: 2025-06-30T19:53Z
TLE epoch observation values (Epoch: 2025-06-30T19:53:33.994Z)
Latitude
-0.00007°
Longitude
-97.53071°
Altitude
1,073.707 km
Speed
7.314 km/s
True Right ascension
07h 59m 58s
True Declination
0° 00' 00"
Sunlit
Object was in daylight at epoch
Visualization orbit readout
Latitude
70.07421°
Longitude
-94.80271°
Altitude
1,068.918 km
Speed
7.33 km/s
Apparent Right ascension
09h 26m 57s
Apparent Declination
21° 54' 02"
Sunlit
Object is in daylight
Visualization observer readout
Local Sidereal Time
22:05:56
Azimuth
10.199° NNE
Elevation
-27.518°
Doppler factor
1
Orbital elements
Apogee altitude
1,079.289 km
Perigee altitude
1,052.311 km
Semi-major axis
7,443.937 km
Eccentricity
0.00181
Inclination
88.9838°
RAAN
119.994°
Arg. of periapsis
98.7613°
True anomaly
Unknown
Mean anomaly
261.5591°
Eccentric anomaly
Unknown
Mean motion
3.3794 °/min
Orbital period
106.53 mins
BSTAR
0.00014592
Loading maneuver chart data...
Loading SW <> Apogee altitude chart data...
Loading historical data...
Loading historical data...
Loading historical data...
Loading historical data...
Loading historical data...
Loading historical data...
Loading historical data...

QIANFAN-69 Visibility forecast

Observer location: undefined°, undefined°

Span
Click to sort rows by Start time (UTC) header in descending order
Start Az.
Max El. time (UTC)
Max El. Az.
Max El.
End time (UTC)
End Az.
10 mins2025-07-01 19:07:29.044Z128.065° SE2025-07-01 19:12:29.044Z75.298° E23.82°2025-07-01 19:17:29.044Z24.163° NE
11 mins2025-07-01 20:53:29.044Z204.352° SW2025-07-01 20:58:29.044Z271.95° WNW36.888°2025-07-01 21:04:29.044Z346.73° N
12 mins2025-07-02 08:02:29.044Z3.318° NNE2025-07-02 08:08:29.044Z144.622° SSE44.229°2025-07-02 08:14:29.044Z179.029° S
5 mins2025-07-02 09:51:29.044Z310.21° NW2025-07-02 09:53:29.044Z290.453° WNW14.59°2025-07-02 09:56:29.044Z261.354° W
|